Regional Weather Roundup
Issued by NWS

Home | Current Version | Previous Version | Text Only | Print | Product List | Glossary On
Versions: 1 2 3 4 5 6 7 8 9 10 11 12 13 14 15 16 17 18 19 20 21 22 23 24 25 26 27 28 29 30 31 32 33 34 35 36 37 38 39 40 41 42 43 44 45 46 47 48 49 50
000
ASUS43 KDTX 310710
RWRMI
MICHIGAN HOURLY REGIONAL WEATHER ROUNDUP
NATIONAL WEATHER SERVICE DETROIT/PONTIAC MI
300 AM EDT FRI JUL 31 2015

NOTE: "FAIR" INDICATES FEW OR NO CLOUDS BELOW 12,000 FEET WITH NO
SIGNIFICANT WEATHER AND/OR OBSTRUCTION TO VISIBILITY.

MIZ047>049-052>055-059>063-066>070-074>076-081>083-310800-
SOUTHEAST LOWER MICHIGAN

CITY           SKY/WX    TMP DP  RH WIND       PRES   REMARKS
ADRIAN         MOCLDY    66  59  78 W5        29.99F
ALMA           CLEAR     63  59  87 CALM      29.94F
ANN ARBOR      PTCLDY    62  57  83 SW7       29.96F
BAD AXE        MOCLDY    63  59  87 CALM      29.91F
DETROIT CITY   CLEAR     72  57  59 W7        29.94F
DETROIT        CLEAR     68  59  73 S5        29.96S
FLINT          CLEAR     67  58  72 SW6       29.94F
GROSSE ILE     CLEAR     70  61  73 W6        29.94F
HILLSDALE      CLEAR     69  56  63 W5        30.01S
HOWELL         CLEAR     64  58  80 W6        29.97R

CITY           SKY/WX    TMP DP  RH WIND       PRES   REMARKS
JACKSON        CLEAR     64  58  80 SW7       29.98S
LAMBERTVILLE   CLEAR     71  58  64 W5        29.98F
LANSING        CLEAR     67  58  72 W6        29.97S
LAPEER         NOT AVBL
MASON          CLEAR     65  57  75 SW3       29.97S
MONROE         CLEAR     66  59  78 W5        29.96S
MT. CLEMENS    CLEAR     70  59  68 SW7       29.92F
PONTIAC        CLEAR     67  58  72 SW7       29.95S
PORT HOPE        N/A     65  59  81 S5        29.89S
PORT HURON     CLEAR     63  59  88 CALM      29.93S
TRI CITIES     CLEAR     65  59  81 W9        29.93S
YPSILANTI      CLEAR     68  59  73 SW7       29.96F
$$
MIZ043>046-050>051-056>058-064>065-071>073-077>080-310800-
SOUTHWEST LOWER MICHIGAN

CITY           SKY/WX    TMP DP  RH WIND       PRES   REMARKS
BATTLE CREEK   CLEAR     66  58  75 SW7       29.99S
BENTON HARBOR  CLEAR     73  62  68 W8        29.99S
BIG RAPIDS     CLEAR     62  59  88 CALM      29.94S
COLDWATER      MOCLDY    65  57  76 SW5       30.00S
HOLLAND        CLEAR     71  61  70 W5        29.98F
GRAND RAPIDS   CLEAR     67  59  75 SW7       29.97S
KALAMAZOO      CLEAR     66  58  75 W7        29.99S
MARSHALL       CLEAR     64  58  80 CALM      29.99R
MUSKEGON         N/A     65  59  81 SW5       29.96S
$$
MIZ016>042-310800-
NORTHERN LOWER MICHIGAN

CITY           SKY/WX    TMP DP  RH WIND       PRES   REMARKS
ALPENA         CLEAR     61  54  77 SW7       29.86F
BEAVER ISLAND  CLEAR     66  61  84 SW7       29.84F
BELLAIRE       CLEAR     58  55  91 SW3       29.88F
CADILLAC       CLEAR     56  56  97 CALM      29.93F
CHARLEVOIX     CLEAR     68  61  78 SW8       29.89S
FRANKFORT      SUNNY     67  62  85 W3        29.90S
GAYLORD        CLEAR     59  54  83 CALM      29.90F
GRAYLING       CLEAR     62  56  79 SW7       29.92S
HARBOR SPRINGS CLEAR     64  60  87 SW3       29.86S
HOUGHTON LAKE  CLEAR     66  59  78 W5        29.93S
MANISTEE       CLEAR     59  55  88 E3        29.92S
OSCODA         CLEAR     59  58  95 SW3       29.88F
PELLSTON       CLEAR     52  50  93 CALM      29.85F
TRAVERSE CITY  CLEAR     67  59  75 CALM      29.88S
$$
MIZ007>008-015-310800-
EASTERN UPPER MICHIGAN

CITY           SKY/WX    TMP DP  RH WIND       PRES   REMARKS
KINROSS        CLEAR     61  57  88 SW3       29.82S
MACKINAC ISLAN CLEAR     67  58  73 SW9       29.82F
$$
MIZ004>006-011>014-085-310800-
CENTRAL UPPER MICHIGAN

CITY           SKY/WX    TMP DP  RH WIND       PRES   REMARKS
MANISTIQUE     PTCLDY    64  57  77 W5        29.83F
ESCANABA       CLEAR     63  57  82 W8        29.85S
MENOMINEE      CLEAR     64  55  72 W7        29.89S
SAWYER-GWINN   CLEAR     61  56  82 W5        29.86F
$$
MIZ001>003-009>011-084-310800-
WESTERN UPPER MICHIGAN

CITY           SKY/WX    TMP DP  RH WIND       PRES   REMARKS
IRON MOUNTAIN  CLEAR     65  57  75 W7        29.88S
HOUGHTON       CLEAR     59  54  83 W8        29.82F
COPPER HARBOR    N/A     64  53  67 NW8       29.79S
IRONWOOD       CLEAR     63  55  77 W9        29.87F
$$

ABBREVIATIONS USED IN REMARKS
   TC - TEMPERATURE IN CELSIUS
  WCI - WIND CHILL INDEX
   HX - HEAT INDEX
  VSB - VISIBILITY



USA.gov is the U.S. government's official web portal to all federal, state and local government web resources and services.